Tracking 29892 objects as of 21-Nov-2024
HD Live streaming from Space Station
objects crossing your sky now

STARLINK-3584

Track STARLINK-3584 now!
10-day predictions
STARLINK-3584 is classified as:


NORAD ID: 51885
Int'l Code: 2022-022AK
Perigee: 545.8 km
Apogee: 548.0 km
Inclination: 53.2 °
Period: 95.4 minutes
Semi major axis: 6917 km
RCS: Unknown
Launch date: March 3, 2022
Source: United States (US)
Launch site: AIR FORCE EASTERN TEST RANGE (AFETR)
Your satellite tracking list
Your tracking list is empty




NASA's NSSDC Master Catalog

Two Line Element Set (TLE):
1 51885U 22022AK  24324.42377449  .00001113  00000-0  88018-4 0  9995
2 51885  53.2179 332.6726 0001618  90.3837 269.7340 15.08843934151497
Source of the keplerian elements: AFSPC